Regional Weather Roundup
Issued by NWS Upton, NY

Current Version | Previous Version | Text Only | Print | Product List | Glossary On
Versions: 1 2 3 4 5 6 7 8 9 10 11 12 13 14 15 16 17 18 19 20 21 22 23 24 25 26 27
000
ASUS41 KOKX 240405
RWROKX

REGIONAL WEATHER ROUNDUP
NATIONAL WEATHER SERVICE NEW YORK NY
1200 AM EDT SUN JUL 24 2016

NOTE: "FAIR" INDICATES FEW OR NO CLOUDS BELOW 12,000 FEET WITH NO
SIGNIFICANT WEATHER AND/OR OBSTRUCTIONS TO VISIBILITY.

NYZ071-072-176-178-NJZ106-104-240500-
NEW YORK CITY METRO AREA

CITY           SKY/WX    TMP DP  RH WIND       PRES   REMARKS
Central Park   CLEAR     85  55  35 VRB5      29.92R
LaGuardia APRT PTCLDY    86  57  37 N8        29.88R
Kennedy INTL   CLEAR     86  53  32 N9        29.89R
Newark/Liberty PTCLDY    85  55  35 NW6       29.89R
BRNX BOT. GARD   N/A     81  55  41 NE1       29.91R
Wall St Helipt CLEAR     84  59  42 CALM      29.90R
Teterboro      CLEAR     84  53  34 CALM      29.88R
$$

NYZ177-179-078>081-240500-
LONG ISLAND NEW YORK

CITY           SKY/WX    TMP DP  RH WIND       PRES   REMARKS
FARMINGDALE    PTCLDY    81  59  47 N6        29.90R
ISLIP          PTCLDY    78  59  51 N7        29.89R
SHIRLEY        CLEAR     76  60  57 N5        29.89R
RIVERHEAD      NOT AVBL
WESTHAMPTON    CLEAR     76  59  55 N8        29.90R
SOUTHAMPTON      N/A     77  63  61 N2        29.85R
BRIDGEHAMPTON    N/A     75  61  60 CALM      29.87R
EAST HAMPTON   FAIR      71  62  73 N5        29.88R
MONTAUK POINT    N/A     74  63  68 N3        29.89R
$$

NYZ052-065-067-240500-
HUDSON VALLEY

CITY           SKY/WX    TMP DP  RH WIND       PRES   REMARKS
WHITE PLAINS   PTCLDY    75  58  55 NW7       29.91R
NEWBURGH       CLEAR     75  63  64 CALM      29.94R
MONTGOMERY     CLEAR     70  60  70 NW3       29.92R
POUGHKEEPSIE   CLEAR     70  60  70 CALM      29.91R
ALBANY         PTCLDY    66  63  90 W3        29.93R
$$

NJZ001-105-106-008-010-013-015-019>022-104-240500-
NEW JERSEY

CITY           SKY/WX    TMP DP  RH WIND       PRES   REMARKS
NEWARK/LIBERTY PTCLDY    85  55  35 NW6       29.89R
TETERBORO      CLEAR     84  53  34 CALM      29.88R
CALDWELL       CLEAR     76  59  55 CALM      29.91R
MORRISTOWN     CLEAR     68  59  73 CALM      29.91R
SOMERVILLE     CLEAR     70  65  84 CALM      29.90R
SUSSEX         CLEAR     67  61  81 CALM      29.93R
ANDOVER          N/A     68  60  75 CALM      29.94R
TRENTON        CLEAR     77  67  71 NW6       29.91R
MILLVILLE      CLEAR     74  72  93 CALM      29.91R FOG
ATLANTIC CITY  CLEAR     75  69  81 SW5       29.90S
WRIGHTSTOWN    CLEAR     74  70  88 W2        29.89R
TOMS RIVER     CLEAR     73  70  88 NW5       29.91R
BELMAR         CLEAR     76  69  79 W6        29.92R
$$

PAZ047>061-062-071-240500-
EASTERN PENNSYLVANIA

CITY           SKY/WX    TMP DP  RH WIND       PRES   REMARKS
PHILADELPHIA   PTCLDY    79  71  76 SW8       29.92R
ALLENTOWN      CLEAR     73  59  61 N3        29.94R
SCRANTON       CLEAR     72  57  59 E5        29.97R
$$

CTZ002-004>006-009-010-012-RIZ004-006-007-MAZ004-011-015-240500-
SOUTHERN NEW ENGLAND
 IN CT

CITY           SKY/WX    TMP DP  RH WIND       PRES   REMARKS
BRADLEY INTL   PTCLDY    71  59  65 NW5       29.90R
HARTFORD       PTCLDY    78  59  51 N7        29.89R
DANBURY        CLEAR     70  58  65 CALM      29.93R
WTRBRY/OXFORD    N/A     70  54  56 N8        29.93R
BRIDGEPORT     PTCLDY    80  58  46 N6        29.89R
MERIDEN        PTCLDY    75  57  53 CALM      29.89R
NEW HAVEN      CLEAR     76  57  51 N6        29.89R
CHESTER        FAIR      77  59  53 N5        29.90R
GROTON         CLEAR     78  57  48 N9        29.87R
WILLIMANTIC    NOT AVBL

 IN RI

CITY           SKY/WX    TMP DP  RH WIND       PRES   REMARKS
PROVIDENCE     CLOUDY    75  58  55 W3        29.88R
BLOCK ISLAND   MOCLDY    72  63  73 CALM      29.89R
WESTERLY       MOCLDY    79  55  43 NW5       29.88R

 IN MA

CITY           SKY/WX    TMP DP  RH WIND       PRES   REMARKS
BOSTON         CLOUDY    72  58  61 NW15G22   29.85S
WORCESTER      CLOUDY    69  55  60 NW14G23   29.92R
WESTFIELD      CLEAR     69  60  73 N5        29.91R
PROVINCETOWN   CLOUDY    67  64  90 W5        29.86R
NANTUCKET      PTCLDY    73  62  68 N10       29.85R
$$

ANZ330-335-338-340-345-350-353-355-240500-
COASTAL MARINE OBSERVATIONS


STATION/POSITION TIME  SKY/WX   TEMP    WIND        PRES    VSBY  WAVE
                                AIR SEA DIR/SP/G                  HT/PER
                 (UTC)          (F)     (DEG/KT/KT) (MB)    (MI)  (FT/S)
NY HARB ENTRANCE 0250            79 73  260/  8/  8 1011.3          2/ 8
20S FIRE ISLAND  0250            77 74  300/  8/ 10 1011.0          3/ 6
GREAT SOUTH BAY  0315            82 80  350/ 10/ 12   N/A
23 SSW MONTAUK P 0250            73 71  260/ 12/ 14 1010.8          4/ 7
15 E BARNEGAT LI 0322               75                N/A           3/ 6
HUDSON CANYON    0250            78 77              1010.5          4/ 6
KINGS POINT      0300            83 74                N/A
EXECUTION ROCKS  0300            80     180/  2/  4   N/A
CENTRAL LI SOUND 0300            79 73  360/ 10/ 12   N/A           1
EASTERN LI SOUND 0300            77 69  360/ 12/ 16   N/A
ROBBINS REEF     0300            88                   N/A
$$


>>>>>>>>>>>>>>>>>>>>>>>>>>>> KEY <<<<<<<<<<<<<<<<<<<<<<<<<<<
>                                                          <
>     SKY/WX - SKY CONDITION/PRESENT WEATHER               <
>     TMP    - TEMPERATURE IN FAHRENHEIT                   <
>     DP     - DEWPOINT IN FAHRENHEIT                      <
>     RH     - RELATIVE HUMIDITY IN PERCENT                <
>     WIND   - DIRECTION AND SPEED IN MPH                  <
>     PRES   - MEAN SEA LEVEL PRESSURE IN INCHES OF HG     <
>     WCI    - WIND CHILL INDEX                            <
>     VSB    - VISIBILITY IN MILES                         <
>     HX     - HEAT INDEX                                  <
>     TC     - TEMPERATURE IN CELSIUS                      <
>     VRB    - VARIABLE WIND DIRECTION                     <
>                                                          <
>>>>>>>>>>>>>>>>>>>>>>>>>>>> KEY <<<<<<<<<<<<<<<<<<<<<<<<<<<






USA.gov is the U.S. government's official web portal to all federal, state and local government web resources and services.